CST,Max TemperatureF,Mean TemperatureF,Min TemperatureF,Max Dew PointF,MeanDew PointF,Min DewpointF,Max Humidity, Mean Humidity, Min Humidity, Max Sea Level PressureIn, Mean Sea Level PressureIn, Min Sea Level PressureIn, Max VisibilityMiles, Mean VisibilityMiles, Min VisibilityMiles, Max Wind SpeedMPH, Mean Wind SpeedMPH, Max Gust SpeedMPH,PrecipitationIn, CloudCover, Events, WindDirDegrees
2012-1-1,36,32,28,33,27,18,94,81,64,29.91,29.70,29.56,10,7,1,20,7,26,0.02,8,Rain-Snow,295
2012-1-2,23,18,12,13,7,2,66,59,47,30.37,30.15,29.97,10,10,10,21,15,32,0.00,5,,319
2012-1-3,20,12,3,10,3,-1,80,67,49,30.37,30.21,29.95,10,10,10,8,4,,0.00,1,,226
2012-1-4,32,24,16,21,16,11,81,70,62,29.97,29.90,29.84,10,10,10,13,4,18,0.00,2,,265
2012-1-5,40,32,24,30,24,20,84,74,61,29.95,29.80,29.55,10,10,10,8,1,16,0.00,0,,216
2012-1-6,49,44,39,32,30,27,66,59,43,29.69,29.60,29.50,10,10,10,12,7,21,0.00,1,,256
2012-1-7,36,30,22,28,22,18,83,66,48,30.22,29.98,29.69,10,10,10,18,6,22,0.00,5,,292
2012-1-8,41,30,19,27,23,16,87,74,55,30.27,30.23,30.19,10,10,10,10,2,,0.00,1,,241
2012-1-9,46,38,29,28,27,24,83,66,46,30.11,29.88,29.75,10,10,10,20,7,28,0.00,2,,239
2012-1-10,49,36,22,32,27,21,93,75,50,29.97,29.89,29.74,10,10,10,9,1,16,0.00,0,,210
2012-1-11,48,38,27,31,30,25,93,74,50,29.68,29.60,29.54,10,10,7,6,1,,0.00,0,,240
2012-1-12,37,30,21,32,23,16,86,79,69,29.56,29.53,29.49,10,5,1,16,10,22,0.00,8,Snow,359
2012-1-13,23,22,20,16,11,8,82,66,54,29.94,29.76,29.57,10,9,2,15,9,23,0.00,7,Snow,345
2012-1-14,19,14,8,6,5,3,85,66,54,30.18,30.08,30.00,10,10,10,7,3,,0.00,6,,42
2012-1-15,31,20,10,24,15,6,83,75,67,30.23,30.16,30.00,10,10,10,10,2,17,0.00,6,,162
2012-1-16,37,30,23,27,24,21,91,78,65,29.92,29.78,29.71,10,9,5,9,3,16,0.00,4,,140
2012-1-17,32,22,13,24,15,4,82,67,53,30.13,29.89,29.77,10,9,1,20,13,29,0.00,6,Snow,348
2012-1-18,18,9,0,9,2,-4,82,67,49,30.19,30.04,29.73,10,10,10,8,5,,0.00,2,,219
2012-1-19,22,10,-3,17,-8,-18,83,54,35,30.09,29.90,29.61,10,10,4,21,11,31,0.00,2,Snow,282
2012-1-20,7,-1,-9,2,-9,-16,84,66,49,30.20,30.18,30.16,10,9,2,8,2,,0.00,4,Snow,245
2012-1-21,20,8,-4,6,0,-9,84,68,46,30.25,30.20,30.14,10,10,10,7,1,,0.00,0,,192
2012-1-22,32,25,18,30,23,10,96,86,71,30.06,29.82,29.63,10,6,1,14,3,16,0.00,8,,132
2012-1-23,35,32,28,34,31,21,96,91,75,29.65,29.41,29.26,10,5,1,16,7,24,0.12,8,Rain-Snow,321
2012-1-24,30,26,19,22,19,16,85,72,63,30.29,30.08,29.74,10,10,10,14,9,25,0.00,4,,272
2012-1-25,32,24,16,28,20,14,90,79,64,30.34,30.24,30.09,10,10,7,6,1,,0.00,5,,196
2012-1-26,33,31,29,31,28,26,94,89,83,29.99,29.79,29.64,7,4,1,9,4,,0.00,8,,215
2012-1-27,39,32,24,32,22,16,92,65,41,29.83,29.75,29.63,10,10,3,12,7,21,0.00,4,Rain-Snow,250
2012-1-28,34,28,21,32,19,14,92,70,53,29.92,29.79,29.69,10,10,3,18,10,29,0.00,6,Rain-Snow,280
2012-1-29,26,20,14,15,9,5,80,62,45,30.14,30.00,29.91,10,10,10,13,6,21,0.00,2,,271
2012-1-30,35,22,8,25,16,4,89,75,60,30.14,29.91,29.74,10,9,2,8,2,,0.00,4,Snow,104
2012-1-31,46,32,18,33,26,16,92,78,57,29.74,29.67,29.59,10,8,4,10,2,,0.00,0,,247